Torna al catalogo

STARLINK-11189

AttivoComunicazioniVLEO
NORAD 60188·PAYLOAD·🇺🇸 United States

Lanciato Jul 3, 2024 da Cape Canaveral Space Force Station

Loading…

Prossimi Passaggi (prossime 24 ore)

TLE

AggiornatoSource: CelesTrak SupGP

Epoca: Sep 14, 2026, 20:41 UTC

1 60188C 24124F   26257.86229167 -.00054066  00000+0 -44534-3 0  2571
2 60188  53.1570 309.0719 0001154  77.6759 178.5831 15.69737616    12

Traccia STARLINK-11189 in tempo reale con AllMySat

Download on the App Store